Location: Rounton
(54.4000°N, 1.3500°W)
Time: 13:09:05
(UTC+00:00)

Transit 4A - Pass Details

Date: 03 December 2021
Orbit: 864 x 981 km, 66.8° (Epoch: 18 January)

Event Time Altitude Azimuth Distance (km) Brightness Sun altitude
Rises 19:57:25 0° 210° (SSW) 3,463 11.1 -35.5°
Reaches altitude 10° 19:59:52 10° 208° (SSW) 2,540 10.3 -35.9°
Enters shadow 20:00:04 11° 208° (SSW) 2,464 10.2 -35.9°
Maximum altitude 20:05:43 71° 126° (SE) 953 - -36.7°
Drops below altitude 10° 20:11:47 10° 44° (NE) 2,631 - -37.5°
Sets 20:14:21 0° 42° (NE) 3,596 - -37.9°
